DKH8522 ZSPD-ZYHB

Flight info

Callsign DKH8522
Flight time N/A
Altitude 35100
Route IBEGI B221 XDX DCT URBAD W172 IGDEG W173 NIXEP W8 DOBGA W202 UDETI A588 NULRA W206 MAGBI W656 ISLUK W629 LARUN
Aircraft A20N/M-SDE2E3FGHIRWXY/LB1

Departure

Time N/A
Airport Shanghai Pudong International Airport (ZSPD)

Arrival

Time 2026-04-27 13:30
Airport Harbin Taiping International Airport (ZYHB)
Time Latitude Longitude Altitude Speed Heading
2026-04-27 11:21 32.78361 121.83812 35014 ft 401 kts 329°
2026-04-27 11:21 32.80967 121.82609 35013 ft 402 kts 329°
2026-04-27 11:22 32.86156 121.80209 35014 ft 401 kts 329°
2026-04-27 11:22 32.91371 121.77799 35008 ft 401 kts 329°
2026-04-27 11:23 32.96565 121.75390 35002 ft 401 kts 329°
2026-04-27 11:23 33.01748 121.72987 35003 ft 401 kts 329°
2026-04-27 11:24 33.06928 121.70582 35003 ft 399 kts 329°
2026-04-27 11:24 33.12128 121.68167 35001 ft 401 kts 329°
2026-04-27 11:25 33.17323 121.65762 35004 ft 400 kts 328°
2026-04-27 11:25 33.22500 121.63349 35010 ft 398 kts 328°
2026-04-27 11:26 33.27614 121.60903 35006 ft 396 kts 327°
2026-04-27 11:26 33.32682 121.58293 35004 ft 396 kts 326°
2026-04-27 11:27 33.37764 121.55663 35009 ft 396 kts 327°
2026-04-27 11:27 33.42821 121.53057 35009 ft 395 kts 327°
2026-04-27 11:28 33.47852 121.50463 35013 ft 394 kts 327°
2026-04-27 11:28 33.52909 121.47848 35012 ft 394 kts 326°
2026-04-27 11:29 33.57916 121.45254 35011 ft 392 kts 327°
2026-04-27 11:29 33.62921 121.42660 35009 ft 392 kts 326°
2026-04-27 11:30 33.67985 121.40058 35011 ft 396 kts 328°
2026-04-27 11:30 33.73128 121.37641 35015 ft 397 kts 328°
2026-04-27 11:31 33.78254 121.35242 35023 ft 397 kts 328°
2026-04-27 11:31 33.83391 121.32805 35025 ft 394 kts 327°
2026-04-27 11:32 33.88476 121.30382 35021 ft 392 kts 327°
2026-04-27 11:32 33.93533 121.27975 35024 ft 393 kts 327°
2026-04-27 11:33 33.98624 121.25551 35027 ft 394 kts 327°
2026-04-27 11:33 34.03733 121.23120 35032 ft 393 kts 327°
2026-04-27 11:34 34.08795 121.20707 35030 ft 392 kts 327°
2026-04-27 11:34 34.13882 121.18291 35025 ft 392 kts 327°
2026-04-27 11:35 34.18943 121.15886 35031 ft 393 kts 327°
2026-04-27 11:35 34.24033 121.13464 35037 ft 392 kts 327°
2026-04-27 11:36 34.29102 121.11034 35034 ft 391 kts 326°
2026-04-27 11:36 34.34172 121.08605 35037 ft 394 kts 327°
2026-04-27 11:37 34.39252 121.06165 35038 ft 391 kts 327°
2026-04-27 11:37 34.44323 121.03729 35039 ft 394 kts 326°
2026-04-27 11:38 34.49390 121.01287 35044 ft 392 kts 326°
2026-04-27 11:38 34.54443 120.98852 35045 ft 392 kts 327°
2026-04-27 11:39 34.59520 120.96401 35048 ft 393 kts 326°
2026-04-27 11:39 34.64590 120.93948 35047 ft 392 kts 326°
2026-04-27 11:40 34.69682 120.91486 35044 ft 391 kts 326°
2026-04-27 11:40 34.74726 120.89040 35051 ft 392 kts 326°
2026-04-27 11:41 34.79796 120.86579 35057 ft 394 kts 326°
2026-04-27 11:41 34.84906 120.84095 35055 ft 394 kts 326°
2026-04-27 11:42 34.89975 120.81628 35059 ft 393 kts 326°
2026-04-27 11:42 34.95056 120.79153 35059 ft 393 kts 326°
2026-04-27 11:43 35.00097 120.76688 35064 ft 390 kts 326°
2026-04-27 11:43 35.05173 120.74208 35064 ft 392 kts 326°
2026-04-27 11:44 35.10302 120.71815 35065 ft 399 kts 329°
2026-04-27 11:44 35.15720 120.69975 35064 ft 407 kts 334°
2026-04-27 11:45 35.20368 120.68958 35066 ft 406 kts 339°
2026-04-27 11:45 35.26933 120.68199 35071 ft 406 kts 341°
2026-04-27 11:46 35.32583 120.67652 35073 ft 409 kts 341°
2026-04-27 11:46 35.38253 120.67107 35080 ft 409 kts 341°
2026-04-27 11:47 35.43887 120.66571 35085 ft 406 kts 341°
2026-04-27 11:47 35.49548 120.66022 35081 ft 407 kts 341°
2026-04-27 11:48 35.55218 120.65479 35089 ft 409 kts 341°
2026-04-27 11:48 35.60870 120.64931 35091 ft 407 kts 341°
2026-04-27 11:49 35.66506 120.64388 35083 ft 405 kts 341°
2026-04-27 11:49 35.72125 120.63848 35084 ft 406 kts 341°
2026-04-27 11:50 35.77736 120.63304 35087 ft 404 kts 341°
2026-04-27 11:50 35.83364 120.62756 35087 ft 409 kts 341°
2026-04-27 11:51 35.89008 120.62209 35083 ft 404 kts 340°
2026-04-27 11:52 35.97406 120.61394 35087 ft 403 kts 341°
2026-04-27 11:52 36.02989 120.60847 35078 ft 405 kts 341°
2026-04-27 11:53 36.08621 120.60301 35079 ft 405 kts 340°
2026-04-27 11:53 36.14225 120.59759 35074 ft 405 kts 340°
2026-04-27 11:54 36.19861 120.59216 35083 ft 404 kts 340°
2026-04-27 11:54 36.25446 120.58670 35076 ft 404 kts 340°
2026-04-27 11:55 36.31045 120.58118 35080 ft 403 kts 340°
2026-04-27 11:55 36.36637 120.57568 35077 ft 405 kts 340°
2026-04-27 11:56 36.42178 120.57024 35078 ft 401 kts 339°
2026-04-27 11:56 36.47777 120.56493 35077 ft 402 kts 341°
2026-04-27 11:57 36.53462 120.56526 35087 ft 414 kts 347°
2026-04-27 11:57 36.59316 120.57300 35087 ft 427 kts 351°
2026-04-27 11:57 36.62266 120.57809 35201 ft 430 kts 351°
2026-04-27 11:58 36.65228 120.58324 35438 ft 429 kts 352°
2026-04-27 11:58 36.68161 120.58845 35905 ft 423 kts 351°
2026-04-27 11:58 36.71053 120.59360 36349 ft 417 kts 351°
2026-04-27 11:58 36.73899 120.59857 36679 ft 414 kts 350°
2026-04-27 11:59 36.76778 120.60347 36777 ft 416 kts 351°
2026-04-27 11:59 36.79642 120.60840 37049 ft 414 kts 350°
2026-04-27 11:59 36.82464 120.61328 37070 ft 413 kts 350°
2026-04-27 12:00 36.88171 120.62315 37085 ft 414 kts 350°
2026-04-27 12:00 36.93849 120.63303 37083 ft 412 kts 350°
2026-04-27 12:01 36.99571 120.64364 37082 ft 414 kts 350°
2026-04-27 12:01 37.05315 120.65445 37076 ft 415 kts 350°
2026-04-27 12:02 37.11041 120.66508 37078 ft 420 kts 351°
2026-04-27 12:02 37.16824 120.67601 37077 ft 419 kts 351°
2026-04-27 12:03 37.22551 120.68678 37092 ft 414 kts 351°
2026-04-27 12:03 37.28263 120.69748 37088 ft 417 kts 351°
2026-04-27 12:04 37.33995 120.70824 37094 ft 416 kts 350°
2026-04-27 12:04 37.39707 120.71891 37090 ft 418 kts 351°
2026-04-27 12:05 37.45454 120.72972 37092 ft 419 kts 350°
2026-04-27 12:05 37.51206 120.74056 37091 ft 417 kts 351°
2026-04-27 12:06 37.56965 120.75144 36911 ft 415 kts 351°
2026-04-27 12:06 37.59830 120.75607 37034 ft 411 kts 348°
2026-04-27 12:06 37.62661 120.75960 37072 ft 411 kts 347°
2026-04-27 12:07 37.68346 120.76623 37086 ft 410 kts 348°
2026-04-27 12:07 37.74028 120.77299 37093 ft 409 kts 348°
2026-04-27 12:08 37.79702 120.77968 37101 ft 413 kts 348°
2026-04-27 12:08 37.85412 120.78650 37103 ft 412 kts 348°
2026-04-27 12:09 37.91126 120.79338 37104 ft 413 kts 348°
2026-04-27 12:09 37.96937 120.80508 37105 ft 433 kts 356°
2026-04-27 12:10 38.02765 120.82800 37103 ft 450 kts
2026-04-27 12:10 38.05671 120.84407 37109 ft 462 kts 10°
2026-04-27 12:10 38.08541 120.86331 37114 ft 473 kts 15°
2026-04-27 12:11 38.14180 120.90608 37117 ft 473 kts 16°
2026-04-27 12:11 38.19785 120.95132 37109 ft 484 kts 23°
2026-04-27 12:11 38.22386 120.97902 37114 ft 497 kts 31°
2026-04-27 12:12 38.24771 121.01118 37102 ft 509 kts 39°
2026-04-27 12:12 38.26885 121.04763 37086 ft 520 kts 48°
2026-04-27 12:12 38.28672 121.08800 37104 ft 530 kts 56°
2026-04-27 12:13 38.31645 121.17478 37074 ft 534 kts 60°
2026-04-27 12:13 38.34522 121.26109 37088 ft 535 kts 59°
2026-04-27 12:14 38.37485 121.34752 37068 ft 532 kts 58°
2026-04-27 12:14 38.40460 121.43350 37074 ft 531 kts 58°
2026-04-27 12:15 38.43656 121.51784 37031 ft 525 kts 54°
2026-04-27 12:15 38.46984 121.60014 37057 ft 524 kts 53°
2026-04-27 12:16 38.50290 121.68230 37051 ft 525 kts 55°
2026-04-27 12:16 38.53588 121.76536 37020 ft 525 kts 55°
2026-04-27 12:17 38.56871 121.84818 37017 ft 524 kts 55°
2026-04-27 12:17 38.60152 121.93103 37046 ft 522 kts 55°
2026-04-27 12:18 38.63418 122.01373 37045 ft 521 kts 55°
2026-04-27 12:18 38.66816 122.09463 37047 ft 512 kts 48°
2026-04-27 12:19 38.71146 122.16396 37046 ft 492 kts 33°
2026-04-27 12:19 38.76324 122.21787 37019 ft 473 kts 20°
2026-04-27 12:20 38.81885 122.26105 37000 ft 466 kts 18°
2026-04-27 12:20 38.87457 122.30398 37141 ft 468 kts 19°
2026-04-27 12:21 38.92961 122.34744 37101 ft 464 kts 19°
2026-04-27 12:21 38.98451 122.39098 37038 ft 464 kts 20°
2026-04-27 12:22 39.03950 122.43471 37038 ft 464 kts 20°
2026-04-27 12:22 39.09424 122.47827 37040 ft 465 kts 20°
2026-04-27 12:23 39.14936 122.52214 36917 ft 465 kts 20°
2026-04-27 12:23 39.20392 122.56578 37018 ft 463 kts 20°
2026-04-27 12:24 39.25867 122.60957 37039 ft 463 kts 20°
2026-04-27 12:24 39.31424 122.65015 37041 ft 457 kts 18°
2026-04-27 12:25 39.36990 122.68974 37044 ft 460 kts 18°
2026-04-27 12:25 39.42605 122.72991 37042 ft 459 kts 18°
2026-04-27 12:26 39.48183 122.76980 37046 ft 461 kts 19°
2026-04-27 12:26 39.53783 122.80993 37047 ft 461 kts 19°
2026-04-27 12:27 39.59345 122.84985 37049 ft 461 kts 19°
2026-04-27 12:27 39.64950 122.89017 37045 ft 461 kts 19°
2026-04-27 12:28 39.70552 122.93050 37047 ft 461 kts 19°
2026-04-27 12:28 39.76109 122.97061 37044 ft 460 kts 20°
2026-04-27 12:29 39.81697 123.01103 37040 ft 460 kts 19°
2026-04-27 12:29 39.87296 123.05155 37040 ft 461 kts 20°
2026-04-27 12:30 39.92893 123.09221 37033 ft 462 kts 20°
2026-04-27 12:30 39.98494 123.13293 37028 ft 462 kts 20°
2026-04-27 12:31 40.04098 123.17379 37031 ft 462 kts 20°
2026-04-27 12:31 40.09694 123.21420 37012 ft 460 kts 20°
2026-04-27 12:32 40.15317 123.25446 37010 ft 461 kts 20°
2026-04-27 12:32 40.19992 123.28805 37033 ft 461 kts 20°
2026-04-27 12:33 40.26512 123.33517 37025 ft 460 kts 21°
2026-04-27 12:33 40.32124 123.37582 37082 ft 460 kts 21°
2026-04-27 12:34 40.37669 123.41612 36971 ft 459 kts 20°
2026-04-27 12:34 40.43268 123.45680 37062 ft 460 kts 21°
2026-04-27 12:35 40.48870 123.49768 37033 ft 460 kts 21°
2026-04-27 12:35 40.54463 123.53857 37031 ft 460 kts 21°
2026-04-27 12:36 40.60016 123.57918 37028 ft 459 kts 21°
2026-04-27 12:36 40.65606 123.62003 37019 ft 459 kts 21°
2026-04-27 12:37 40.71179 123.66088 37016 ft 459 kts 22°
2026-04-27 12:37 40.76741 123.70206 37012 ft 459 kts 22°
2026-04-27 12:38 40.82299 123.74307 37013 ft 461 kts 22°
2026-04-27 12:38 40.87909 123.78358 37011 ft 460 kts 21°
2026-04-27 12:39 40.93552 123.82369 37011 ft 460 kts 22°
2026-04-27 12:39 40.99167 123.86380 37023 ft 461 kts 22°
2026-04-27 12:40 41.04802 123.90416 37029 ft 462 kts 22°
2026-04-27 12:40 41.10460 123.94479 37031 ft 462 kts 22°
2026-04-27 12:41 41.16089 123.98516 37023 ft 462 kts 22°
2026-04-27 12:41 41.21744 124.02583 37016 ft 462 kts 22°
2026-04-27 12:42 41.27374 124.06651 37018 ft 461 kts 22°
2026-04-27 12:42 41.32967 124.10701 37020 ft 460 kts 22°
2026-04-27 12:43 41.38293 124.14567 37025 ft 460 kts 22°
2026-04-27 12:43 41.43896 124.18685 37025 ft 460 kts 23°
2026-04-27 12:44 41.49474 124.22886 37029 ft 460 kts 23°
2026-04-27 12:44 41.55029 124.27081 37030 ft 459 kts 23°
2026-04-27 12:45 41.60571 124.31266 37030 ft 459 kts 24°
2026-04-27 12:45 41.66119 124.35462 37031 ft 458 kts 24°
2026-04-27 12:46 41.71655 124.39656 37034 ft 458 kts 24°
2026-04-27 12:46 41.77162 124.43841 37034 ft 458 kts 24°
2026-04-27 12:47 41.82711 124.48064 37036 ft 458 kts 24°
2026-04-27 12:47 41.88205 124.52254 37039 ft 457 kts 24°
2026-04-27 12:48 41.93749 124.56492 37044 ft 457 kts 24°
2026-04-27 12:48 41.99257 124.60619 37050 ft 455 kts 22°
2026-04-27 12:49 42.04881 124.64473 37059 ft 455 kts 21°
2026-04-27 12:49 42.10509 124.68330 37055 ft 456 kts 22°
2026-04-27 12:50 42.16177 124.72222 37059 ft 455 kts 22°
2026-04-27 12:50 42.21801 124.76087 37063 ft 455 kts 22°
2026-04-27 12:51 42.27424 124.79961 37066 ft 455 kts 22°
2026-04-27 12:51 42.33023 124.83827 37063 ft 454 kts 22°
2026-04-27 12:52 42.38660 124.87729 37062 ft 454 kts 22°
2026-04-27 12:52 42.44265 124.91615 37064 ft 454 kts 22°
2026-04-27 12:53 42.52679 124.97465 37064 ft 454 kts 22°
2026-04-27 12:53 42.58268 125.01361 37063 ft 453 kts 22°
2026-04-27 12:54 42.63850 125.05260 37065 ft 453 kts 22°
2026-04-27 12:54 42.69459 125.09187 37069 ft 453 kts 22°
2026-04-27 12:55 42.75062 125.13118 37069 ft 453 kts 22°
2026-04-27 12:55 42.80647 125.17043 37068 ft 453 kts 23°
2026-04-27 12:56 42.86212 125.20927 37072 ft 453 kts 22°
2026-04-27 12:56 42.91828 125.24814 37078 ft 452 kts 22°
2026-04-27 12:57 42.97435 125.28706 37077 ft 451 kts 22°
2026-04-27 12:57 43.03021 125.32594 37078 ft 451 kts 22°
2026-04-27 12:58 43.08568 125.36467 37090 ft 450 kts 23°
2026-04-27 12:58 43.14167 125.40372 37077 ft 450 kts 22°
2026-04-27 12:59 43.19745 125.44265 37096 ft 451 kts 23°
2026-04-27 12:59 43.25281 125.48149 37095 ft 449 kts 23°
2026-04-27 13:00 43.30833 125.52055 37090 ft 448 kts 23°
2026-04-27 13:00 43.36393 125.55975 37103 ft 448 kts 23°
2026-04-27 13:01 43.41909 125.59872 37096 ft 448 kts 23°
2026-04-27 13:01 43.47459 125.63803 37109 ft 447 kts 23°
2026-04-27 13:02 43.52949 125.67718 37104 ft 447 kts 24°
2026-04-27 13:02 43.58502 125.71690 37119 ft 446 kts 24°
2026-04-27 13:03 43.61253 125.73651 37017 ft 447 kts 24°
2026-04-27 13:03 43.64002 125.75613 36818 ft 444 kts 24°
2026-04-27 13:03 43.66752 125.77575 36641 ft 442 kts 24°
2026-04-27 13:03 43.69469 125.79516 36455 ft 440 kts 24°
2026-04-27 13:04 43.72203 125.81379 36287 ft 436 kts 21°
2026-04-27 13:04 43.74975 125.83005 36119 ft 432 kts 18°
2026-04-27 13:04 43.77769 125.84377 35950 ft 429 kts 14°
2026-04-27 13:04 43.80629 125.85519 35783 ft 428 kts 11°
2026-04-27 13:05 43.83528 125.86420 35573 ft 428 kts
2026-04-27 13:05 43.86452 125.87090 35299 ft 428 kts
2026-04-27 13:05 43.89370 125.87904 34852 ft 432 kts 12°
2026-04-27 13:05 43.92256 125.89100 34338 ft 438 kts 18°
2026-04-27 13:06 43.95095 125.90685 33722 ft 446 kts 23°
2026-04-27 13:06 43.97848 125.92654 33102 ft 450 kts 29°
2026-04-27 13:06 44.00514 125.95010 32466 ft 454 kts 34°
2026-04-27 13:06 44.03075 125.97494 31768 ft 459 kts 33°
2026-04-27 13:07 44.05810 125.99882 30985 ft 464 kts 28°
2026-04-27 13:07 44.08663 126.01916 30220 ft 465 kts 22°
2026-04-27 13:07 44.11655 126.03558 29491 ft 464 kts 17°
2026-04-27 13:07 44.14733 126.04775 28776 ft 463 kts 11°
2026-04-27 13:08 44.17874 126.05606 28052 ft 461 kts
2026-04-27 13:08 44.21022 126.06285 27285 ft 460 kts
2026-04-27 13:08 44.24173 126.06936 26575 ft 458 kts
2026-04-27 13:08 44.27301 126.07594 26122 ft 450 kts
2026-04-27 13:09 44.30382 126.08258 25648 ft 443 kts
2026-04-27 13:09 44.33387 126.08916 25172 ft 436 kts
2026-04-27 13:09 44.36368 126.09575 24696 ft 430 kts
2026-04-27 13:09 44.39267 126.10216 24238 ft 424 kts
2026-04-27 13:10 44.42147 126.10849 23786 ft 418 kts
2026-04-27 13:10 44.45023 126.11482 23325 ft 412 kts
2026-04-27 13:10 44.47810 126.12099 22874 ft 407 kts
2026-04-27 13:10 44.50634 126.12723 22420 ft 401 kts
2026-04-27 13:11 44.53359 126.13328 21979 ft 396 kts
2026-04-27 13:11 44.56046 126.13928 21539 ft 392 kts
2026-04-27 13:11 44.58725 126.14527 21092 ft 387 kts
2026-04-27 13:11 44.61366 126.15118 20651 ft 383 kts
2026-04-27 13:12 44.63980 126.15704 20210 ft 379 kts
2026-04-27 13:12 44.66585 126.16289 19767 ft 375 kts
2026-04-27 13:12 44.69138 126.16863 19336 ft 371 kts
2026-04-27 13:12 44.71679 126.17383 18873 ft 368 kts
2026-04-27 13:13 44.74215 126.17702 18396 ft 365 kts
2026-04-27 13:13 44.76727 126.17937 17973 ft 360 kts
2026-04-27 13:13 44.79230 126.18160 17529 ft 357 kts
2026-04-27 13:13 44.81667 126.18377 17083 ft 354 kts
2026-04-27 13:14 44.84120 126.18597 16625 ft 351 kts
2026-04-27 13:14 44.86548 126.18817 16164 ft 348 kts
2026-04-27 13:14 44.88940 126.19034 15708 ft 346 kts
2026-04-27 13:14 44.91336 126.19252 15242 ft 343 kts
2026-04-27 13:15 44.93685 126.19466 14777 ft 341 kts
2026-04-27 13:15 44.96050 126.19682 14305 ft 338 kts
2026-04-27 13:15 44.98374 126.19894 13846 ft 336 kts
2026-04-27 13:15 45.00708 126.20110 13380 ft 334 kts
2026-04-27 13:16 45.03008 126.20216 12920 ft 333 kts 356°
2026-04-27 13:16 45.05249 126.19308 12522 ft 335 kts 335°
2026-04-27 13:16 45.07101 126.17335 12168 ft 341 kts 315°
2026-04-27 13:16 45.08377 126.14496 11761 ft 346 kts 294°
2026-04-27 13:17 45.09081 126.11283 11305 ft 346 kts 288°
2026-04-27 13:17 45.09721 126.08007 10807 ft 345 kts 288°
2026-04-27 13:17 45.10365 126.04732 10352 ft 343 kts 288°
2026-04-27 13:17 45.11008 126.01556 10216 ft 330 kts 289°
2026-04-27 13:18 45.11618 125.98550 10137 ft 315 kts 289°
2026-04-27 13:18 45.12211 125.95631 10063 ft 301 kts 289°
2026-04-27 13:18 45.12778 125.92834 10000 ft 288 kts 289°
2026-04-27 13:18 45.13322 125.90151 9694 ft 285 kts 289°
2026-04-27 13:19 45.13938 125.87495 9370 ft 281 kts 297°
2026-04-27 13:19 45.14899 125.85114 9075 ft 274 kts 310°
2026-04-27 13:19 45.16059 125.83028 8819 ft 268 kts 313°
2026-04-27 13:19 45.17241 125.81014 8561 ft 262 kts 315°
2026-04-27 13:20 45.20553 125.78924 7974 ft 239 kts
2026-04-27 13:20 45.22095 125.79594 7716 ft 232 kts 31°
2026-04-27 13:20 45.22961 125.80468 7551 ft 229 kts 39°
2026-04-27 13:21 45.24588 125.82353 7205 ft 224 kts 39°
2026-04-27 13:21 45.25782 125.83740 6947 ft 220 kts 39°
2026-04-27 13:21 45.26958 125.85103 6689 ft 217 kts 39°
2026-04-27 13:21 45.28128 125.86454 6430 ft 214 kts 39°
2026-04-27 13:22 45.28891 125.87336 6258 ft 213 kts 39°
2026-04-27 13:22 45.30417 125.89098 5942 ft 212 kts 39°
2026-04-27 13:22 45.31561 125.90421 5896 ft 212 kts 39°
2026-04-27 13:22 45.32706 125.91743 5889 ft 212 kts 39°
2026-04-27 13:23 45.33851 125.93067 5876 ft 213 kts 39°
2026-04-27 13:23 45.34996 125.94391 5614 ft 212 kts 39°
2026-04-27 13:23 45.36129 125.95702 5375 ft 209 kts 39°
2026-04-27 13:23 45.36872 125.96563 5273 ft 203 kts 38°
2026-04-27 13:24 45.37949 125.97812 5116 ft 196 kts 38°
2026-04-27 13:24 45.38640 125.98608 5014 ft 191 kts 38°
2026-04-27 13:24 45.40263 126.00439 4945 ft 173 kts 38°
2026-04-27 13:24 45.41204 126.01515 4724 ft 171 kts 38°
2026-04-27 13:25 45.42108 126.02562 4490 ft 166 kts 38°
2026-04-27 13:25 45.42986 126.03588 4262 ft 160 kts 38°
2026-04-27 13:25 45.43847 126.04597 4050 ft 159 kts 38°
2026-04-27 13:25 45.44699 126.05600 3839 ft 159 kts 39°
2026-04-27 13:26 45.45549 126.06601 3627 ft 158 kts 39°
2026-04-27 13:26 45.46390 126.07591 3415 ft 157 kts 39°
2026-04-27 13:26 45.47230 126.08580 3202 ft 157 kts 38°
2026-04-27 13:26 45.48082 126.09582 2990 ft 157 kts 38°
2026-04-27 13:27 45.48920 126.10567 2775 ft 157 kts 38°
2026-04-27 13:27 45.49487 126.11233 2633 ft 157 kts 38°
2026-04-27 13:27 45.50574 126.12508 2366 ft 147 kts 38°
2026-04-27 13:27 45.51362 126.13432 2160 ft 146 kts 38°
2026-04-27 13:28 45.52149 126.14354 1960 ft 145 kts 38°
2026-04-27 13:28 45.52923 126.15260 1763 ft 145 kts 38°
2026-04-27 13:28 45.53705 126.16177 1566 ft 144 kts 38°
2026-04-27 13:28 45.54474 126.17077 1371 ft 144 kts 38°
2026-04-27 13:29 45.55242 126.17977 1178 ft 143 kts 38°
2026-04-27 13:29 45.56015 126.18879 984 ft 143 kts 38°
2026-04-27 13:29 45.56782 126.19778 792 ft 142 kts 38°
2026-04-27 13:29 45.57518 126.20642 608 ft 140 kts 38°
2026-04-27 13:30 45.58260 126.21508 511 ft 130 kts 38°
2026-04-27 13:30 45.58841 126.22177 510 ft 82 kts 39°
2026-04-27 13:30 45.59150 126.22541 510 ft 35 kts 35°
2026-04-27 13:30 45.59353 126.22658 510 ft 22 kts 13°
2026-04-27 13:31 45.59472 126.22700 510 ft 14 kts 13°
2026-04-27 13:31 45.59513 126.22714 510 ft 8 kts 14°
2026-04-27 13:31 45.59586 126.22763 510 ft 9 kts 39°
2026-04-27 13:31 45.59631 126.22817 510 ft 8 kts 39°
2026-04-27 13:32 45.59683 126.22877 510 ft 10 kts 39°
2026-04-27 13:32 45.59740 126.22945 510 ft 11 kts 39°
2026-04-27 13:32 45.59783 126.22995 510 ft 12 kts 39°
2026-04-27 13:32 45.59890 126.23121 510 ft 16 kts 39°
2026-04-27 13:33 45.59988 126.23235 510 ft 19 kts 39°
2026-04-27 13:33 45.60097 126.23364 510 ft 20 kts 39°
2026-04-27 13:33 45.60200 126.23484 510 ft 17 kts 39°
2026-04-27 13:33 45.60267 126.23563 510 ft 11 kts 39°
2026-04-27 13:34 45.60322 126.23620 510 ft 8 kts 13°
2026-04-27 13:34 45.60371 126.23579 510 ft 8 kts 313°
2026-04-27 13:34 45.60415 126.23511 510 ft 9 kts 311°
2026-04-27 13:34 45.60461 126.23433 510 ft 11 kts 309°
2026-04-27 13:35 45.60512 126.23344 510 ft 12 kts 308°
2026-04-27 13:35 45.60568 126.23247 510 ft 12 kts 308°
2026-04-27 13:35 45.60626 126.23144 510 ft 13 kts 309°
2026-04-27 13:35 45.60667 126.23074 510 ft 14 kts 309°
2026-04-27 13:36 45.60753 126.22926 511 ft 12 kts 308°
2026-04-27 13:36 45.60816 126.22920 510 ft 11 kts 35°
2026-04-27 13:36 45.60881 126.22992 510 ft 12 kts 39°
2026-04-27 13:36 45.60925 126.23045 510 ft 12 kts 40°
2026-04-27 13:37 45.61020 126.23158 511 ft 13 kts 39°
2026-04-27 13:37 45.61095 126.23245 510 ft 14 kts 39°
2026-04-27 13:37 45.61174 126.23338 510 ft 14 kts 39°
2026-04-27 13:37 45.61240 126.23412 510 ft 10 kts 22°
2026-04-27 13:38 45.61298 126.23365 511 ft 7 kts 308°
2026-04-27 13:38 45.61324 126.23321 511 ft 6 kts 310°
2026-04-27 13:38 45.61356 126.23264 510 ft 7 kts 309°
2026-04-27 13:38 45.61394 126.23198 510 ft 9 kts 309°
2026-04-27 13:39 45.61437 126.23150 510 ft 7 kts 358°
2026-04-27 13:39 45.61483 126.23185 511 ft 7 kts 38°
2026-04-27 13:39 45.61515 126.23222 510 ft 3 kts 39°
2026-04-27 13:39 45.61534 126.23244 510 ft 2 kts 39°
2026-04-27 13:40 45.61541 126.23253 511 ft 0 kts 39°
2026-04-27 13:40 45.61546 126.23258 511 ft 0 kts 39°
2026-04-27 13:40 45.61547 126.23260 511 ft 0 kts 39°